Wind_Speed
46 45 44 44 44 44 45 45 45 45 45 46 46 46 47 47 48 49 49 49 49 49 49 48 48 49 48 48 48 48 47 47 46 46 46 46 46 46
46 46 46 45 45 45 45 46 47 48 47 47 47 48 48 49 50 50 50 50 50 49 49 49 48 48 48 48 48 48 47 46 46 46 47 48 47 47
46 47 47 47 47 47 47 48 48 48 48 48 48 49 49 49 50 50 50 50 49 49 49 50 49 49 49 49 48 48 48 48 47 47 47 48 48 47
46 46 46 47 47 47 48 48 48 49 50 50 50 50 51 51 50 50 51 51 50 50 50 50 50 49 49 49 49 48 48 48 48 48 48 49 48 48
46 46 46 46 48 48 48 49 49 51 51 52 51 51 51 52 51 51 51 51 51 51 51 51 51 51 50 50 49 48 49 49 48 48 48 48 48 48
45 46 46 48 48 49 49 50 51 52 52 52 52 52 51 51 52 51 51 51 51 51 51 51 51 51 51 50 49 49 48 48 48 49 49 49 49 48
46 47 48 49 50 50 51 51 52 52 52 52 51 51 51 52 52 52 51 51 50 50 50 50 50 50 50 50 50 50 50 49 49 50 50 49 49 49
45 46 47 48 50 50 51 52 52 51 51 51 51 51 50 51 51 52 51 51 50 50 50 50 50 50 50 51 51 50 50 50 50 50 50 50 50 49
44 45 46 48 49 50 51 51 51 51 50 50 50 50 50 50 51 50 50 50 49 49 50 49 49 49 49 49 49 50 50 50 50 49 49 49 49 49
46 46 47 48 49 50 50 51 51 50 49 49 49 49 49 49 49 49 48 48 48 48 49 48 47 48 48 47 48 48 49 48 48 48 48 47 47 47
47 47 48 48 49 49 49 49 49 50 49 49 49 49 48 49 49 48 47 48 47 46 48 48 48 47 47 46 46 46 46 46 46 46 46 45 45 45
45 46 47 48 48 48 48 48 48 48 48 48 49 49 48 48 48 48 48 48 47 46 46 47 46 46 44 44 44 44 44 44 45 45 44 43 44 44
45 45 46 46 46 46 47 47 46 46 47 47 48 48 47 47 48 48 48 47 46 45 45 45 45 45 44 43 43 43 43 43 43 43 43 42 42 42
45 46 46 45 45 45 45 45 45 45 46 46 45 46 46 46 46 46 46 45 45 44 44 44 44 44 43 43 42 42 42 41 41 41 41 40 40 40
45 46 46 45 45 45 45 45 45 45 45 44 44 44 44 45 45 45 44 44 43 43 44 44 44 44 43 42 41 40 40 39 39 38 38 38 38 38
45 44 45 45 45 44 44 44 45 44 43 43 42 42 43 42 42 42 42 42 42 42 42 42 43 42 42 41 40 39 38 37 36 36 36 35 36 36
44 43 44 44 44 43 42 42 42 41 42 42 41 41 41 40 40 40 40 40 39 39 39 40 40 39 38 37 37 36 36 35 35 34 34 35 35 35
42 42 41 41 42 41 41 40 40 40 41 41 40 39 39 38 38 38 37 37 36 36 36 36 37 36 34 34 34 33 33 33 33 33 33 33 33 34
41 41 40 40 40 39 39 39 39 39 39 38 37 36 36 36 35 35 35 34 34 34 34 34 34 33 32 31 31 31 31 31 31 31 31 32 31 32
41 40 39 39 38 38 37 37 37 36 35 35 34 33 33 33 33 33 33 33 32 32 32 32 32 31 30 30 29 29 30 30 30 30 30 30 30 31
39 39 38 38 37 36 35 35 34 33 32 32 32 32 32 31 31 31 31 30 30 30 30 29 29 29 28 28 27 27 27 27 28 28 28 28 28 29
37 36 36 35 35 34 33 33 32 31 31 31 30 30 30 29 29 29 29 29 28 28 27 27 27 26 26 25 25 25 25 25 25 25 26 26 27 27
33 33 33 33 32 31 31 30 29 29 29 29 28 28 28 28 28 28 27 27 26 26 25 25 25 24 24 23 23 23 23 23 23 24 25 26 26 26
Wind_Direction
270 271 272 273 273 275 276 276 277 277 277 278 278 279 278 278 278 278 278 278 278 278 278 278 277 276 275 276 275 274 273 272 271 270 270 269 271 271
270 271 271 272 273 274 275 276 277 278 278 278 278 279 279 279 279 279 278 279 279 278 278 277 276 276 276 275 275 274 272 272 270 270 268 269 270 270
272 272 271 272 274 274 275 275 277 277 278 278 278 278 279 279 279 279 279 279 279 278 278 278 277 276 275 275 274 273 272 272 270 268 268 268 269 269
273 272 272 272 273 274 275 275 276 277 277 278 278 279 279 280 280 279 278 277 277 277 278 277 276 275 274 274 274 273 271 270 269 268 268 268 268 268
274 274 274 274 274 275 276 276 276 277 278 278 278 279 279 279 279 279 278 278 277 277 277 276 276 275 274 274 273 272 271 271 270 269 269 269 268 269
275 275 275 276 278 278 278 278 278 278 278 278 278 279 279 279 279 279 279 278 277 277 276 276 275 275 274 274 273 272 272 271 270 270 270 269 268 268
276 276 276 278 279 279 278 279 279 280 279 279 279 279 279 278 279 279 279 278 277 277 276 276 276 274 273 273 272 272 271 270 270 270 269 268 267 267
278 278 277 278 278 278 279 279 280 280 279 279 280 280 279 279 278 278 278 278 277 276 276 275 275 274 273 273 272 271 270 270 270 270 269 268 267 267
278 278 278 278 278 279 279 279 279 279 279 280 281 281 280 279 279 279 279 278 278 276 274 274 274 275 274 273 272 270 270 269 269 269 268 267 266 266
278 278 278 279 279 280 280 280 280 279 279 280 281 281 280 279 279 280 279 279 278 277 275 275 275 275 274 273 273 272 270 270 269 268 268 266 266 266
279 279 279 279 280 280 280 280 279 279 279 280 281 281 280 280 280 279 279 279 279 278 277 276 275 275 274 273 273 272 272 270 269 268 267 266 265 264
280 281 281 281 281 281 280 280 280 279 279 279 280 281 281 281 281 280 280 280 280 279 278 278 276 275 273 273 273 273 273 271 270 269 267 266 265 265
281 282 282 282 282 281 281 281 281 280 280 280 280 281 280 281 281 281 280 281 281 280 279 278 277 275 274 274 273 274 273 271 269 268 267 265 265 265
282 282 282 283 282 280 280 281 281 280 280 280 280 280 280 280 280 280 280 281 281 280 280 279 278 276 275 275 274 273 272 270 268 267 266 266 265 265
283 282 282 283 281 280 279 279 279 279 280 280 280 280 280 280 280 279 279 279 280 280 280 280 278 277 276 275 274 272 270 268 267 266 266 265 264 265
285 284 283 283 282 281 280 279 278 278 279 279 279 280 280 280 280 279 278 278 278 279 279 279 278 277 276 275 273 271 269 267 266 265 264 264 264 264
286 285 284 284 283 282 280 279 278 279 280 279 279 280 280 280 279 279 278 278 277 277 278 279 278 278 277 275 272 268 267 266 265 264 264 264 264 264
287 286 285 284 284 282 281 281 279 279 279 279 279 279 279 279 278 278 278 277 277 278 278 279 278 278 276 274 271 268 266 266 266 265 265 265 264 264
287 286 285 284 284 282 282 281 280 280 279 279 278 278 278 277 276 277 278 278 278 278 278 279 278 277 275 272 270 268 267 266 266 266 265 265 265 264
287 285 284 285 284 283 282 281 280 281 279 277 278 280 280 278 277 277 277 277 277 277 278 277 277 276 273 271 269 268 268 268 266 266 265 265 265 265
287 285 284 285 284 283 281 280 281 281 280 277 277 279 279 278 278 278 278 277 277 277 277 276 276 274 272 269 267 267 269 269 268 267 266 265 265 265
288 286 285 285 284 282 280 279 279 279 279 277 277 279 278 278 278 278 277 277 276 276 275 275 274 273 271 269 268 267 268 269 269 269 268 267 267 266
288 286 284 284 284 281 279 278 278 278 278 277 277 278 277 277 277 278 277 275 274 274 274 274 273 272 270 268 267 268 269 270 270 270 271 270 270 269
Height
5686 5686 5686 5685 5684 5684 5683 5682 5682 5682 5682 5680 5678 5677 5675 5673 5672 5671 5670 5668 5667 5666 5665 5664 5663 5661 5661 5660 5658 5657 5657 5657 5658 5658 5659 5659 5660 5660
5674 5674 5673 5672 5672 5671 5670 5670 5669 5668 5668 5668 5666 5664 5662 5660 5659 5658 5656 5655 5654 5652 5651 5650 5649 5648 5647 5646 5645 5644 5644 5644 5644 5645 5645 5646 5647 5647
5661 5661 5660 5659 5659 5658 5658 5657 5656 5655 5654 5655 5652 5650 5648 5647 5645 5644 5642 5642 5640 5639 5638 5636 5635 5635 5634 5633 5632 5631 5631 5631 5631 5631 5631 5632 5633 5634
5648 5648 5647 5646 5646 5645 5644 5643 5642 5641 5640 5640 5639 5637 5635 5633 5631 5630 5628 5627 5626 5625 5624 5622 5621 5621 5620 5619 5618 5618 5618 5617 5617 5618 5618 5619 5619 5619
5635 5635 5634 5633 5633 5632 5630 5629 5628 5626 5625 5625 5624 5622 5620 5618 5617 5616 5614 5613 5612 5610 5609 5608 5607 5606 5606 5605 5604 5604 5604 5604 5604 5604 5604 5605 5605 5605
5623 5622 5621 5620 5619 5618 5617 5615 5614 5612 5611 5609 5609 5608 5606 5603 5602 5601 5600 5598 5597 5595 5594 5593 5592 5591 5591 5590 5590 5590 5589 5589 5589 5590 5590 5591 5591 5592
5610 5608 5607 5606 5604 5603 5602 5601 5599 5597 5596 5594 5593 5592 5591 5589 5587 5585 5584 5583 5582 5580 5579 5578 5577 5577 5575 5575 5574 5574 5574 5574 5574 5575 5575 5576 5576 5577
5597 5595 5594 5592 5590 5589 5587 5585 5584 5582 5580 5579 5578 5577 5576 5574 5572 5570 5569 5568 5568 5566 5564 5563 5562 5561 5560 5560 5559 5559 5559 5559 5559 5559 5560 5561 5561 5562
5583 5582 5580 5578 5576 5575 5573 5571 5569 5567 5565 5564 5563 5561 5561 5559 5557 5556 5553 5552 5551 5550 5548 5549 5547 5546 5545 5544 5544 5543 5543 5543 5543 5544 5544 5545 5546 5547
5570 5568 5566 5564 5562 5561 5559 5557 5555 5553 5552 5550 5549 5548 5545 5544 5542 5540 5538 5537 5537 5535 5533 5533 5533 5531 5530 5530 5529 5528 5528 5528 5528 5528 5529 5530 5531 5532
5557 5554 5552 5551 5549 5547 5545 5543 5542 5540 5538 5536 5534 5533 5531 5529 5527 5525 5524 5522 5522 5522 5518 5518 5518 5517 5516 5516 5515 5514 5513 5513 5513 5514 5514 5515 5516 5517
5544 5541 5539 5536 5534 5532 5530 5529 5528 5526 5524 5522 5521 5519 5517 5515 5512 5511 5509 5508 5507 5507 5506 5503 5503 5502 5503 5503 5501 5500 5500 5499 5499 5500 5500 5501 5502 5503
5530 5528 5525 5522 5520 5518 5516 5514 5513 5512 5510 5509 5507 5505 5503 5501 5499 5497 5495 5493 5493 5492 5491 5490 5489 5488 5488 5489 5489 5487 5486 5486 5486 5486 5486 5487 5488 5489
5516 5514 5511 5509 5507 5504 5502 5500 5499 5497 5496 5494 5493 5491 5489 5487 5485 5483 5481 5480 5479 5478 5477 5476 5475 5474 5474 5474 5475 5474 5473 5472 5473 5473 5473 5474 5475 5477
5501 5499 5497 5495 5493 5490 5488 5487 5485 5483 5481 5480 5479 5477 5475 5473 5471 5470 5468 5467 5466 5464 5463 5462 5461 5460 5459 5460 5460 5460 5460 5460 5459 5460 5461 5462 5464 5465
5487 5485 5483 5480 5478 5476 5474 5472 5471 5469 5467 5466 5465 5463 5461 5459 5458 5456 5455 5454 5453 5452 5450 5448 5447 5446 5446 5446 5446 5447 5446 5447 5448 5448 5450 5451 5452 5453
5474 5471 5469 5466 5464 5462 5460 5458 5457 5455 5454 5453 5451 5450 5448 5447 5445 5444 5442 5441 5440 5439 5438 5436 5435 5434 5433 5433 5434 5434 5434 5435 5436 5437 5438 5440 5441 5442
5460 5458 5456 5453 5451 5449 5447 5445 5444 5443 5441 5440 5439 5437 5436 5435 5434 5432 5431 5430 5428 5427 5426 5425 5424 5423 5422 5422 5422 5423 5423 5424 5425 5426 5427 5429 5430 5431
5448 5445 5443 5441 5439 5437 5435 5433 5432 5430 5429 5428 5427 5425 5424 5423 5422 5421 5420 5419 5418 5417 5416 5415 5413 5412 5412 5413 5413 5412 5413 5414 5415 5416 5417 5418 5420 5421
5435 5433 5431 5429 5427 5425 5423 5421 5420 5419 5417 5417 5416 5415 5413 5412 5412 5411 5410 5409 5408 5407 5406 5405 5404 5403 5403 5403 5403 5404 5403 5404 5405 5406 5407 5408 5410 5411
5423 5421 5419 5417 5415 5413 5411 5410 5409 5408 5407 5406 5406 5405 5404 5403 5402 5401 5400 5399 5398 5398 5397 5396 5395 5394 5394 5394 5395 5395 5395 5395 5396 5397 5398 5399 5401 5402
5412 5410 5408 5406 5404 5403 5401 5400 5399 5398 5397 5397 5396 5395 5394 5394 5393 5392 5391 5391 5390 5389 5388 5388 5387 5386 5386 5387 5387 5387 5388 5388 5388 5389 5390 5391 5392 5393
5402 5399 5397 5396 5394 5393 5392 5391 5390 5389 5388 5388 5387 5386 5386 5385 5384 5383 5383 5382 5381 5381 5381 5380 5380 5380 5379 5380 5380 5380 5381 5381 5381 5382 5383 5382 5384 5385